Regional Weather Roundup
Issued by NWS

Home | Current Version | Previous Version | Graphics & Text | Print | Product List | Glossary On
Versions: 1 2 3 4 5 6 7 8 9 10 11 12 13 14 15 16 17 18 19 20 21 22 23 24 25 26 27 28
000
ASUS45 KBOU 222107
RWRCO

WEATHER ROUNDUP FOR COLORADO
NATIONAL WEATHER SERVICE DENVER/BOULDER CO
300 PM MDT TUE AUG 22 2017

NOTE: "FAIR" INDICATES FEW OR NO CLOUDS BELOW 12000 FEET WITH NO
SIGNIFICANT WEATHER AND/OR OBSTRUCTIONS TO VISIBILITY.

COZ001>005-013-030-031-222200-
...NORTHWEST COLORADO...

CITY           SKY/WX    TMP DP  RH WIND       PRES   REMARKS
CRAIG          FAIR      86  27  11 SW6       30.27F
HAYDEN         FAIR      84  32  15 W8        30.31F
MEEKER         LGT RAIN  76  37  24 E8G20     30.33R
RABBIT EARS PA FAIR      66  34  30 NW6       30.63F
STEAMBOAT SPGS FAIR      80  35  19 W9        30.32S
WALDEN         PTSUNNY   75  28  17 NW8       30.43F
$$

COZ006>008-011-222200-
...WEST CENTRAL VALLEYS...

CITY           SKY/WX    TMP DP  RH WIND       PRES   REMARKS
GRAND JUNCTION FAIR      90  45  21 W9G17     30.19F
MONTROSE       CLOUDY    70  50  49 S17       30.34R
EAGLE          CLOUDY    78  34  20 VRB5G22   30.34F
RIFLE          FAIR      85  33  15 S10       30.24F
DELTA          FAIR      89  43  19 SW8       30.23S
NUCLA          FAIR      84  37  18 CALM      30.32F
$$

COZ017>023-064>068-222200-
...SOUTHWEST COLORADO...

CITY           SKY/WX    TMP DP  RH WIND       PRES   REMARKS
DURANGO        FAIR      80  43  26 W7        30.33F
CORTEZ         FAIR      84  48  28 VRB7      30.28F
PAGOSA SPRINGS FAIR      76  40  27 E10       30.43S
TELLURIDE      FAIR      66  41  40 SW3       30.55F
WOLF CREEK PAS RAIN      45  41  87 CALM      30.79F
$$

COZ009-010-012-014-032>034-037-058>063-222200-
...CENTRAL COLORADO...

CITY           SKY/WX    TMP DP  RH WIND       PRES   REMARKS
ASPEN          FAIR      75  35  23 NE6       30.40F
BUENA VISTA    FAIR      76  32  19 S10G17    30.42F
COPPER MTN     PTSUNNY   66  32  28 E3        30.75F
BERTHOUD PASS  PTSUNNY   48  43  81 SE12      30.77F
COTTONWOOD PAS FAIR      70  21  16 SE7       30.58F
GUNNISON       FAIR      71  46  40 SW7       30.40F
KREMMLING      FAIR      84  27  12 W3        30.37F
LEADVILLE      FAIR      67  22  18 SW6       30.55F
MONARCH PASS   FAIR      55  32  41 E7        30.84F
SALIDA         FAIR      76  42  30 SE13G20   30.48F
SUNLIGHT       CLOUDY    59  28  31 CALM      30.68F
WILKERSON PASS FAIR      64  28  25 SW8       30.71F
$$

COZ069>075-222200-
...SAN LUIS VALLEY/SANGRE DE CRISTO MOUNTAINS...

CITY           SKY/WX    TMP DP  RH WIND       PRES   REMARKS
ALAMOSA        PTSUNNY   75  41  29 SE9       30.41F
DEL NORTE      FAIR      69  44  41 S3        30.46F
LA VETA PASS   NOT AVBL
SAGUACHE         N/A    N/A N/A N/A MISG        N/A
$$

COZ035-036-038>040-222200-
...NORTHERN COLORADO FRONT RANGE...

CITY           SKY/WX    TMP DP  RH WIND       PRES   REMARKS
DENVER INTL AP PTSUNNY   87  53  31 W10G20    30.22F
DMNS CITY PARK   N/A     84  49  30 NW3       30.24F
AURORA         PTSUNNY   82  52  35 S14       30.26F
FRONT RANGE AP FAIR      82  50  32 S20G26    30.26F
ERIE MUNI ARPT FAIR      81  53  38 NW6       30.29F
BOULDER MUN AP FAIR      77  54  44 CALM      30.26F
CENTENNIAL     PTSUNNY   81  48  31 SE8       30.28F
BROOMFIELD     PTSUNNY   79  55  44 CALM      30.28F
FORT COLLINS   FAIR      76  60  57 W6        30.26F
LONGMONT       FAIR      83  58  41 NW3       30.26F
$$

COZ041-046-047-076>085-087-088-222200-
...PIKES PEAK/PALMER DIVIDE AND SOUTHERN FOOTHILLS...

CITY           SKY/WX    TMP DP  RH WIND       PRES   REMARKS
COLO. SPRINGS  PTSUNNY   73  58  59 S20       30.38F
A. F. ACADEMY  MOSUNNY   70  57  63 SE15G22   30.38F
SCHRIEVER AFB  FAIR      69  56  62 S15       30.39F
CHEYENNE MTN   PTSUNNY   66  56  70 S23G29    30.35F
ELLICOTT       FAIR     N/A N/A N/A S10G18    30.37F
FALCON         FAIR      70  55  58 MISG      30.43F
FORT CARSON    FAIR      72  58  59 S13       30.35F
LIMON          FAIR      76  56  49 S14G24    30.32F
MONUMENT HILL  FAIR      68  55  64 S24G31    30.40F
CANON CITY     SUNNY     77  61  57 MISG      30.32F
WALSENBURG     FAIR      77  57  50 SE5       30.36F
TRINIDAD       PTSUNNY   73  57  57 E7        30.36F
$$

COZ042>045-048>051-090-091-222200-
...NORTHEAST COLORADO...

CITY           SKY/WX    TMP DP  RH WIND       PRES   REMARKS
GREELEY ARPT   FAIR      85  58  39 SE9       30.23F
AKRON          FAIR      80  50  34 SE16G24   30.27F
BURLINGTON     FAIR      78  55  44 SE9G18    30.29F
WRAY           NOT AVBL
YUMA           FAIR      75  45  33 SE16      30.26F
STERLING       FAIR      82  50  32 S10G17    30.21F
HOLYOKE        FAIR      81  54  39 SE9       30.25F
FORT MORGAN    FAIR      83  49  30 SE16G22   30.24F
$$

COZ086-089-092>099-222200-
...SOUTHEAST COLORADO...

CITY           SKY/WX    TMP DP  RH WIND       PRES   REMARKS
PUEBLO         FAIR      81  57  43 SE9       30.28F
LA JUNTA       FAIR      78  59  51 MISG      30.28F
LAMAR          FAIR      79  58  48 E8        30.25F
SPRINGFIELD      N/A     78  62  57 E12       30.28F
$$




USA.gov is the U.S. government's official web portal to all federal, state and local government web resources and services.